AI4ZL Weather Reports


time (UTC)temp
F
wind
direction
speed
knots
gust
knots
rain 1hr
in
rain 24hr
in
rain mn
in
humidity
%
barometer
mb
20260905161233 98 277 0.9 1.7 0.00 0.00 0.00 59 1015.8
20260905160248 97 307 0.9 2.6 0.00 0.00 0.00 58 1015.8
20260905155244 97 325 0.9 1.7 0.00 0.00 0.00 59 1015.8
20260905154239 95 61 0.9 2.6 0.00 0.00 0.00 64 1016.0
20260905153233 95 40 0.9 2.6 0.00 0.00 0.00 65 1016.1
20260905152248 93 79 0.9 1.7 0.00 0.00 0.00 67 1016.0
20260905151242 93 60 0.9 2.6 0.00 0.00 0.00 68 1016.0
20260905150239 93 43 0.9 2.6 0.00 0.00 0.00 68 1015.9
20260905145235 92 35 0.9 2.6 0.00 0.00 0.00 70 1016.0
20260905144231 93 42 0.9 1.7 0.00 0.00 0.00 69 1015.9
20260905143247 92 17 0.0 1.7 0.00 0.00 0.00 71 1015.9
20260905142242 91 50 0.9 0.9 0.00 0.00 0.00 73 1016.0
20260905141237 89 15 0.9 1.7 0.00 0.00 0.00 75 1016.0
20260905140231 87 273 1.7 2.6 0.00 0.00 0.00 76 1015.9
20260905135246 88 0.0 0.0 0.00 0.00 0.00 79 1016.1
20260905134241 86 0.0 0.0 0.00 0.00 0.00 81 1015.9
20260905133236 85 0.0 0.0 0.00 0.00 0.00 85 1015.9
20260905132230 81 0.0 0.0 0.00 0.00 0.00 94 1016.0
20260905131246 80 0.0 0.0 0.00 0.00 0.00 99 1015.8
20260905130241 78 0.0 0.0 0.00 0.00 0.00 99 1015.9
20260905125234 76 0.0 0.0 0.00 0.00 0.00 99 1015.8
20260905124249 75 0.0 0.0 0.00 0.00 0.00 99 1015.7
20260905123244 74 0.0 0.0 0.00 0.00 0.00 99 1015.6
20260905122238 74 0.0 0.0 0.00 0.00 0.00 99 1015.7
20260905121234 73 0.0 0.0 0.00 0.00 0.00 99 1015.5
20260905120248 73 0.0 0.0 0.00 0.00 0.00 99 1015.5
20260905115243 73 0.0 0.0 0.00 0.00 0.00 99 1015.4
20260905114237 73 0.0 0.0 0.00 0.00 0.00 99 1015.4
20260905113230 72 0.0 0.0 0.00 0.00 0.00 99 1015.3
20260905112245 73 0.0 0.0 0.00 0.00 0.00 99 1015.3
20260905111240 72 0.0 0.0 0.00 0.00 0.00 99 1015.3
20260905110235 73 0.0 0.0 0.00 0.00 0.00 99 1015.2
20260905105309 73 0.0 0.0 0.00 0.00 0.00 99 1015.2
20260905104305 73 0.0 0.0 0.00 0.00 0.00 99 1015.0
20260905103239 73 0.0 0.0 0.00 0.00 0.00 99 1015.0
20260905102233 73 0.0 0.0 0.00 0.00 0.00 99 1014.9
20260905101248 73 0.0 0.0 0.00 0.00 0.00 99 1014.8
20260905100243 73 0.0 0.0 0.00 0.00 0.00 99 1014.7
20260905095239 74 0.0 0.0 0.00 0.00 0.00 99 1014.7
20260905094234 74 0.0 0.0 0.00 0.00 0.00 99 1014.6
20260905093309 73 0.0 0.0 0.00 0.00 0.00 99 1014.6
20260905092244 74 0.0 0.0 0.00 0.00 0.00 99 1014.6
20260905091239 73 0.0 0.0 0.00 0.00 0.00 99 1014.7
20260905090234 73 0.0 0.0 0.00 0.00 0.00 99 1014.7
20260905085249 73 0.0 0.0 0.00 0.00 0.00 99 1014.8
20260905084305 74 0.0 0.0 0.00 0.00 0.00 99 1014.7
20260905083240 74 0.0 0.0 0.00 0.00 0.00 99 1014.7
20260905082235 74 0.0 0.0 0.00 0.00 0.00 99 1014.6
20260905081250 74 0.0 0.0 0.00 0.00 0.00 99 1014.8
20260905080244 74 0.0 0.0 0.00 0.00 0.00 99 1014.7
20260905075259 74 0.0 0.0 0.00 0.00 0.00 99 1014.9
20260905074253 75 0.0 0.0 0.00 0.00 0.00 99 1014.9
20260905073248 75 0.0 0.0 0.00 0.00 0.00 99 1014.8
20260905072242 75 0.0 0.0 0.00 0.00 0.00 99 1014.9
20260905071237 75 0.0 0.0 0.00 0.00 0.00 99 1015.0
20260905070231 75 0.0 0.0 0.00 0.00 0.00 99 1015.1
20260905065246 75 0.0 0.0 0.00 0.00 0.00 99 1015.1
20260905064242 75 0.0 0.0 0.00 0.00 0.00 99 1015.2
20260905063239 75 0.0 0.0 0.00 0.00 0.00 99 1015.2
20260905062255 76 0.0 0.0 0.00 0.00 0.00 99 1015.2
20260905061249 75 0.0 0.0 0.00 0.00 0.00 99 1015.2
20260905060243 75 0.0 0.0 0.00 0.00 0.00 99 1015.3
20260905055238 76 0.0 0.0 0.00 0.00 0.00 99 1015.2
20260905054233 76 0.0 0.0 0.00 0.00 0.00 99 1015.1
20260905053248 76 0.0 0.0 0.00 0.00 0.00 99 1015.4
20260905052244 76 0.0 0.0 0.00 0.00 0.00 99 1015.3
20260905051239 76 0.0 0.0 0.00 0.00 0.00 99 1015.5
20260905050234 76 0.0 0.0 0.00 0.00 0.00 99 1015.4
20260905045249 76 0.0 0.0 0.00 0.00 0.00 99 1015.5
20260905044243 77 0.0 0.0 0.00 0.00 0.00 99 1015.4
20260905043238 76 0.0 0.0 0.00 0.00 0.00 99 1015.6
20260905042232 77 318 0.0 0.9 0.00 0.00 0.00 99 1015.5
20260905041247 77 318 0.0 0.9 0.00 0.00 0.00 98 1015.5
20260905040242 77 0.0 0.0 0.00 0.00 0.00 98 1015.4
20260905035236 77 0.0 0.0 0.00 0.00 0.00 98 1015.4
20260905034232 78 0.0 0.0 0.00 0.00 0.00 98 1015.4
20260905033307 78 0.0 0.0 0.00 0.00 0.00 98 1015.5
20260905032306 79 0.0 0.0 0.00 0.00 0.00 98 1015.5
20260905031238 78 303 0.0 0.9 0.00 0.00 0.00 98 1015.7
20260905030233 79 0.0 0.0 0.00 0.00 0.00 97 1015.8
20260905025248 79 0.0 0.0 0.00 0.00 0.00 97 1015.6
20260905024242 79 0.0 0.0 0.00 0.00 0.00 96 1015.4
20260905023237 80 0.0 0.0 0.00 0.00 0.00 95 1015.4
20260905022251 80 0.0 0.0 0.00 0.00 0.00 95 1015.4
20260905021246 80 0.0 0.0 0.00 0.00 0.00 94 1015.5
20260905020241 80 0.0 0.0 0.00 0.00 0.00 94 1015.4
20260905015236 81 329 0.0 0.9 0.00 0.00 0.00 93 1015.4
20260905014251 81 315 0.0 0.9 0.00 0.00 0.00 94 1015.2
20260905013246 81 0.0 0.0 0.00 0.00 0.00 92 1015.1
20260905012300 82 327 0.0 0.9 0.00 0.00 0.00 91 1014.9
20260905011235 83 322 0.0 0.9 0.00 0.00 0.00 89 1014.9
20260905010250 84 322 0.0 0.9 0.00 0.00 0.00 90 1014.8
20260905005244 84 318 0.0 0.9 0.00 0.00 0.00 90 1014.9
20260905004300 85 12 0.0 0.9 0.00 0.00 0.00 87 1014.7
20260905003237 86 0.0 0.0 0.00 0.00 0.00 86 1014.6
20260905002232 88 0.0 0.0 0.00 0.00 0.00 80 1014.5
20260905001246 90 0.0 0.0 0.00 0.00 0.00 78 1014.6
20260905000242 91 0.0 0.0 0.00 0.00 0.00 76 1014.4
20260904235258 93 0.0 0.0 0.00 0.00 0.00 71 1014.4
20260904234232 94 0.0 0.0 0.00 0.00 0.00 72 1014.4
20260904233246 96 0.0 0.0 0.00 0.00 0.00 68 1014.4
20260904232242 96 352 0.0 0.9 0.00 0.00 0.00 62 1014.4
20260904231257 96 13 0.9 0.9 0.00 0.00 0.00 58 1014.4
20260904230232 98 14 0.9 0.9 0.00 0.00 0.00 58 1014.3
20260904225248 99 357 0.0 0.9 0.00 0.00 0.00 56 1014.2
20260904224302 99 358 0.0 0.9 0.00 0.00 0.00 53 1014.4
20260904223238 101 359 0.0 0.9 0.00 0.00 0.00 52 1014.5
20260904222233 99 14 0.0 0.9 0.00 0.00 0.00 55 1014.5
20260904221308 98 347 0.0 0.9 0.00 0.00 0.00 56 1014.4
20260904220242 99 0 0.9 1.7 0.00 0.00 0.00 53 1014.5
20260904215237 100 9 0.9 1.7 0.00 0.00 0.00 52 1014.4
20260904214232 100 50 0.9 1.7 0.00 0.00 0.00 53 1014.6
20260904213307 100 108 0.9 2.6 0.00 0.00 0.00 54 1014.9
20260904212242 101 16 0.9 1.7 0.00 0.00 0.00 51 1014.9
20260904211257 102 330 0.9 1.7 0.00 0.00 0.00 51 1014.9
20260904210252 102 333 0.9 1.7 0.00 0.00 0.00 52 1015.0
20260904205247 101 312 0.9 2.6 0.00 0.00 0.00 49 1015.2
20260904204242 101 49 0.9 1.7 0.00 0.00 0.00 49 1015.4
20260904203258 101 257 1.7 3.5 0.00 0.00 0.00 50 1015.5
20260904202232 102 278 0.9 2.6 0.00 0.00 0.00 49 1015.4
20260904201246 101 271 1.7 3.5 0.00 0.00 0.00 50 1015.6
20260904200241 100 152 1.7 2.6 0.00 0.00 0.00 52 1015.8
20260904195235 101 265 0.9 1.7 0.00 0.00 0.00 52 1015.9
20260904194231 100 13 0.9 1.7 0.00 0.00 0.00 52 1016.1
20260904193306 99 22 0.9 1.7 0.00 0.00 0.00 53 1016.3
20260904192240 101 14 1.7 3.5 0.00 0.00 0.00 52 1016.5
20260904191235 101 312 0.9 1.7 0.00 0.00 0.00 53 1016.6
20260904190231 98 45 0.9 1.7 0.00 0.00 0.00 56 1016.7
20260904185247 98 54 1.7 2.6 0.00 0.00 0.00 56 1016.8
20260904184243 97 276 0.9 1.7 0.00 0.00 0.00 56 1017.0
20260904183239 97 307 0.9 3.5 0.00 0.00 0.00 55 1017.0
20260904182236 98 348 0.9 1.7 0.00 0.00 0.00 55 1017.1
20260904181232 100 17 0.9 2.6 0.00 0.00 0.00 54 1017.2
20260904180248 100 315 0.9 1.7 0.00 0.00 0.00 54 1017.1
20260904175244 99 296 1.7 3.5 0.00 0.00 0.00 54 1017.2
20260904174240 100 320 0.9 1.7 0.00 0.00 0.00 55 1017.3
20260904173257 99 5 0.9 1.7 0.00 0.00 0.00 54 1017.5
20260904172233 99 278 0.9 2.6 0.00 0.00 0.00 54 1017.6
20260904171250 98 271 1.7 3.5 0.00 0.00 0.00 54 1017.7
20260904170245 99 324 0.9 1.7 0.00 0.00 0.00 54 1017.6
20260904165305 98 330 0.9 2.6 0.00 0.00 0.00 59 1017.8
20260904164258 98 22 0.9 1.7 0.00 0.00 0.00 60 1017.8
20260904163253 96 28 1.7 3.5 0.00 0.00 0.00 63 1017.9
20260904162248 96 24 0.9 2.6 0.00 0.00 0.00 64 1017.9